Tracking 33165 objects as of 7-Feb-2026
HD Live streaming from Space Station
objects crossing your sky now

STARLINK-35903

Track STARLINK-35903 now!
10-day predictions
STARLINK-35903 is classified as:


NORAD ID: 67168
Int'l Code: 2025-303F
Perigee: 450.1 km
Apogee: 452.1 km
Inclination: 43.0 °
Period: 93.5 minutes
Semi major axis: 6822 km
RCS: Unknown
Launch date: December 17, 2025
Source: United States (US)
Launch site: AIR FORCE EASTERN TEST RANGE (AFETR)
Your satellite tracking list
Your tracking list is empty




NASA's NSSDC Master Catalog

Two Line Element Set (TLE):
1 67168U 25303F   26038.58335648 -.00082176  00000-0 -19801-2 0  9999
2 67168  42.9993 121.8050 0001478 265.1059 272.4632 15.40716760  5874
Source of the keplerian elements: AFSPC